TimeCDT,TemperatureF,Dew PointF,Humidity,Sea Level PressureIn,VisibilityMPH,Wind Direction,Wind SpeedMPH,Gust SpeedMPH,PrecipitationIn,Events,Conditions,WindDirDegrees,DateUTC
12:15 AM,59.0,55.4,88,30.11,10.0,North,6.9,-,N/A,,Clear,360,2013-08-13 05:15:00
12:35 AM,59.0,55.4,88,30.10,10.0,North,5.8,-,N/A,,Clear,10,2013-08-13 05:35:00
12:55 AM,59.0,55.4,88,30.10,10.0,North,5.8,-,N/A,,Clear,360,2013-08-13 05:55:00
1:15 AM,57.2,55.4,94,30.09,10.0,North,4.6,-,N/A,,Clear,10,2013-08-13 06:15:00
1:35 AM,57.2,55.4,94,30.10,10.0,North,4.6,-,N/A,,Clear,350,2013-08-13 06:35:00
1:55 AM,57.2,55.4,94,30.10,10.0,North,4.6,-,N/A,,Clear,350,2013-08-13 06:55:00
2:15 AM,59.0,55.4,88,30.10,10.0,North,4.6,-,N/A,,Clear,350,2013-08-13 07:15:00
2:35 AM,57.2,55.4,94,30.10,10.0,NNW,5.8,-,N/A,,Clear,340,2013-08-13 07:35:00
2:55 AM,59.0,55.4,88,30.10,10.0,NNW,5.8,-,N/A,,Clear,340,2013-08-13 07:55:00
3:15 AM,59.0,53.6,82,30.11,10.0,North,5.8,-,N/A,,Clear,350,2013-08-13 08:15:00
3:35 AM,57.2,53.6,88,30.11,10.0,NNW,5.8,-,N/A,,Clear,340,2013-08-13 08:35:00
3:55 AM,59.0,53.6,82,30.11,10.0,NW,6.9,-,N/A,,Clear,320,2013-08-13 08:55:00
4:15 AM,55.4,53.6,94,30.12,10.0,West,8.1,-,N/A,,Clear,280,2013-08-13 09:15:00
4:35 AM,55.4,53.6,94,30.11,10.0,NW,4.6,-,N/A,,Clear,320,2013-08-13 09:35:00
4:55 AM,55.4,53.6,94,30.11,10.0,NNW,5.8,-,N/A,,Clear,330,2013-08-13 09:55:00
5:15 AM,57.2,53.6,88,30.11,10.0,NNW,5.8,-,N/A,,Clear,330,2013-08-13 10:15:00
5:35 AM,55.4,51.8,88,30.12,10.0,NNW,5.8,-,N/A,,Clear,330,2013-08-13 10:35:00
5:55 AM,55.4,53.6,94,30.11,10.0,NNW,4.6,-,N/A,,Clear,330,2013-08-13 10:55:00
6:15 AM,53.6,51.8,94,30.11,10.0,NNW,3.5,-,N/A,,Clear,330,2013-08-13 11:15:00
6:35 AM,55.4,53.6,94,30.12,10.0,North,4.6,-,N/A,,Clear,350,2013-08-13 11:35:00
6:55 AM,57.2,53.6,88,30.13,10.0,North,6.9,-,N/A,,Clear,350,2013-08-13 11:55:00
7:15 AM,57.2,53.6,88,30.13,10.0,North,5.8,-,N/A,,Clear,350,2013-08-13 12:15:00
7:35 AM,59.0,55.4,88,30.13,10.0,North,5.8,-,N/A,,Clear,360,2013-08-13 12:35:00
7:55 AM,59.0,55.4,88,30.14,10.0,North,5.8,-,N/A,,Clear,350,2013-08-13 12:55:00
8:15 AM,60.8,57.2,88,30.14,10.0,North,5.8,-,N/A,,Clear,360,2013-08-13 13:15:00
8:35 AM,62.6,57.2,82,30.14,10.0,North,6.9,-,N/A,,Clear,10,2013-08-13 13:35:00
8:55 AM,62.6,59.0,88,30.15,10.0,NNE,5.8,-,N/A,,Clear,20,2013-08-13 13:55:00
9:15 AM,64.4,59.0,83,30.15,10.0,NNE,6.9,-,N/A,,Clear,20,2013-08-13 14:15:00
9:35 AM,66.2,59.0,78,30.16,10.0,NE,4.6,-,N/A,,Clear,40,2013-08-13 14:35:00
9:55 AM,66.2,59.0,78,30.16,10.0,NE,4.6,-,N/A,,Clear,40,2013-08-13 14:55:00
10:15 AM,68.0,59.0,73,30.17,10.0,NNE,5.8,-,N/A,,Clear,30,2013-08-13 15:15:00
10:35 AM,68.0,59.0,73,30.17,10.0,NE,8.1,-,N/A,,Clear,40,2013-08-13 15:35:00
10:55 AM,69.8,59.0,68,30.17,9.0,NNE,6.9,-,N/A,,Clear,20,2013-08-13 15:55:00
11:15 AM,69.8,60.8,73,30.18,10.0,Variable,6.9,-,N/A,,Clear,0,2013-08-13 16:15:00
11:35 AM,69.8,59.0,68,30.18,10.0,NE,6.9,-,N/A,,Clear,40,2013-08-13 16:35:00
11:55 AM,71.6,60.8,69,30.18,10.0,NNE,6.9,-,N/A,,Clear,30,2013-08-13 16:55:00
12:15 PM,71.6,59.0,64,30.18,10.0,NE,10.4,-,N/A,,Clear,40,2013-08-13 17:15:00
12:35 PM,73.4,57.2,57,30.18,10.0,NNE,10.4,-,N/A,,Clear,20,2013-08-13 17:35:00
12:55 PM,73.4,57.2,57,30.18,10.0,NE,9.2,-,N/A,,Partly Cloudy,40,2013-08-13 17:55:00
1:15 PM,73.4,59.0,61,30.17,10.0,North,9.2,-,N/A,,Partly Cloudy,10,2013-08-13 18:15:00
1:35 PM,73.4,55.4,53,30.17,10.0,NNE,8.1,13.8,N/A,,Clear,20,2013-08-13 18:35:00
1:55 PM,73.4,57.2,57,30.17,10.0,NNE,10.4,16.1,N/A,,Partly Cloudy,20,2013-08-13 18:55:00
2:15 PM,73.4,57.2,57,30.17,10.0,NNE,10.4,16.1,N/A,,Partly Cloudy,20,2013-08-13 19:15:00
2:35 PM,73.4,55.4,53,30.17,10.0,NNE,10.4,-,N/A,,Scattered Clouds,20,2013-08-13 19:35:00
2:55 PM,73.4,57.2,57,30.16,10.0,NE,8.1,13.8,N/A,,Scattered Clouds,40,2013-08-13 19:55:00
3:15 PM,71.6,55.4,57,30.16,10.0,NE,9.2,15.0,N/A,,Partly Cloudy,40,2013-08-13 20:15:00
3:35 PM,73.4,55.4,53,30.15,10.0,North,11.5,-,N/A,,Partly Cloudy,10,2013-08-13 20:35:00
3:55 PM,73.4,55.4,53,30.15,10.0,NNE,11.5,-,N/A,,Partly Cloudy,20,2013-08-13 20:55:00
4:15 PM,73.4,53.6,50,30.15,10.0,NNE,10.4,-,N/A,,Clear,20,2013-08-13 21:15:00
4:35 PM,73.4,53.6,50,30.15,10.0,NNE,6.9,16.1,N/A,,Clear,30,2013-08-13 21:35:00
4:55 PM,73.4,53.6,50,30.14,10.0,NNE,11.5,-,N/A,,Scattered Clouds,20,2013-08-13 21:55:00
5:15 PM,73.4,51.8,47,30.14,10.0,North,10.4,17.3,N/A,,Partly Cloudy,350,2013-08-13 22:15:00
5:35 PM,73.4,51.8,47,30.14,10.0,NNE,9.2,-,N/A,,Partly Cloudy,20,2013-08-13 22:35:00
5:55 PM,73.4,51.8,47,30.14,10.0,NE,9.2,15.0,N/A,,Clear,40,2013-08-13 22:55:00
7:15 PM,69.8,50.0,49,30.13,10.0,NE,8.1,-,N/A,,Clear,40,2013-08-14 00:15:00
7:35 PM,69.8,50.0,49,30.13,10.0,NNE,8.1,-,N/A,,Clear,30,2013-08-14 00:35:00
7:55 PM,66.2,50.0,56,30.14,10.0,NE,4.6,-,N/A,,Clear,40,2013-08-14 00:55:00
8:15 PM,64.4,51.8,64,30.14,10.0,Calm,Calm,-,N/A,,Clear,0,2013-08-14 01:15:00
8:35 PM,62.6,53.6,72,30.14,10.0,ENE,6.9,-,N/A,,Clear,70,2013-08-14 01:35:00
8:55 PM,62.6,53.6,72,30.15,10.0,ENE,8.1,-,N/A,,Clear,60,2013-08-14 01:55:00
9:15 PM,60.8,55.4,82,30.16,10.0,ENE,8.1,-,N/A,,Clear,70,2013-08-14 02:15:00
9:35 PM,60.8,53.6,77,30.17,10.0,ENE,8.1,-,N/A,,Clear,70,2013-08-14 02:35:00
9:55 PM,59.0,53.6,82,30.17,10.0,ENE,6.9,-,N/A,,Clear,70,2013-08-14 02:55:00
10:15 PM,59.0,53.6,82,30.18,10.0,ENE,8.1,-,N/A,,Clear,70,2013-08-14 03:15:00
10:35 PM,57.2,53.6,88,30.18,10.0,ENE,6.9,-,N/A,,Clear,70,2013-08-14 03:35:00
10:55 PM,57.2,53.6,88,30.18,10.0,ENE,9.2,-,N/A,,Clear,60,2013-08-14 03:55:00
11:15 PM,57.2,53.6,88,30.18,10.0,ENE,4.6,-,N/A,,Clear,70,2013-08-14 04:15:00
11:35 PM,55.4,53.6,94,30.19,10.0,ENE,5.8,-,N/A,,Clear,60,2013-08-14 04:35:00
11:55 PM,55.4,51.8,88,30.19,10.0,ENE,5.8,-,N/A,,Clear,60,2013-08-14 04:55:00